CDT,Max TemperatureF,Mean TemperatureF,Min TemperatureF,Max Dew PointF,MeanDew PointF,Min DewpointF,Max Humidity, Mean Humidity, Min Humidity, Max Sea Level PressureIn, Mean Sea Level PressureIn, Min Sea Level PressureIn, Max VisibilityMiles, Mean VisibilityMiles, Min VisibilityMiles, Max Wind SpeedMPH, Mean Wind SpeedMPH, Max Gust SpeedMPH,PrecipitationIn, CloudCover, Events, WindDirDegrees
2012-10-1,72,57,42,49,38,30,92,55,27,30.00,29.96,29.90,10,10,4,24,6,30,0.00,0,,1
2012-10-2,73,52,31,35,29,24,89,47,16,30.00,29.94,29.85,10,9,4,10,4,,0.00,0,,215
2012-10-3,79,57,35,38,33,28,91,47,15,29.91,29.85,29.77,10,10,5,21,5,28,0.00,0,,177
2012-10-4,54,45,35,39,32,26,76,57,36,30.30,30.16,29.92,10,10,7,24,14,34,0.00,2,,311
2012-10-5,51,40,31,27,22,16,80,53,26,30.30,30.26,30.20,10,10,10,18,6,28,0.00,0,,313
2012-10-6,46,34,23,25,21,17,81,59,37,30.33,30.30,30.27,10,10,10,16,7,29,0.00,3,,321
2012-10-7,57,35,14,24,19,13,93,55,22,30.29,30.12,29.94,10,10,10,20,5,28,0.00,0,,212
2012-10-8,72,56,40,49,30,20,91,47,15,29.94,29.81,29.69,10,10,7,25,12,34,0.01,3,Rain,217
2012-10-9,51,42,30,49,37,26,98,71,38,30.10,29.93,29.80,10,10,10,22,7,29,0.02,6,Rain,296
2012-10-10,61,44,28,29,25,19,86,54,22,30.19,30.09,29.96,10,10,10,16,6,22,0.00,0,,226
2012-10-11,52,42,32,32,27,22,67,48,37,30.39,30.12,29.94,10,10,10,18,12,24,0.00,1,,348
2012-10-12,58,40,23,42,22,11,89,51,16,30.40,30.27,29.99,10,10,10,23,7,29,0.00,3,,140
2012-10-13,72,61,50,60,54,42,99,81,60,29.97,29.74,29.65,10,9,4,18,11,26,0.03,6,Rain-Thunderstorm,194
2012-10-14,64,52,39,52,39,32,93,62,30,29.96,29.83,29.65,10,9,5,20,11,32,0.00,1,Thunderstorm,344
2012-10-15,71,51,31,42,36,29,96,61,27,29.99,29.90,29.74,10,10,7,13,3,18,0.00,0,,174
2012-10-16,77,64,50,49,44,39,85,56,26,29.73,29.51,29.38,10,10,10,13,7,22,0.00,0,,238
2012-10-17,64,54,45,51,39,30,87,56,40,29.51,29.40,29.24,10,10,10,30,12,41,0.00,6,Rain,274
2012-10-18,47,44,40,45,39,29,96,85,50,29.50,29.40,29.32,10,8,2,26,18,41,0.10,8,Rain,298
2012-10-19,44,42,41,41,41,40,98,94,87,29.80,29.68,29.50,10,8,3,24,14,30,0.02,8,Rain,324
2012-10-20,60,48,37,45,42,37,100,83,49,29.83,29.77,29.71,10,9,0,12,4,16,0.00,3,Fog,171
2012-10-21,77,60,43,51,46,40,90,69,37,29.87,29.76,29.72,10,10,10,15,7,22,0.00,1,,161
2012-10-22,63,56,51,60,51,47,93,80,69,29.88,29.82,29.74,10,8,2,14,9,18,0.00,8,Rain-Thunderstorm,32
2012-10-23,63,58,51,62,57,52,100,94,85,29.79,29.73,29.68,10,5,1,13,5,,0.00,7,,197
2012-10-24,56,50,42,56,50,41,100,96,91,29.83,29.79,29.76,10,5,2,18,9,30,0.00,8,Rain,13
2012-10-25,42,38,34,41,33,28,97,86,70,30.30,30.01,29.69,10,8,2,23,17,34,0.47,8,Rain-Snow-Thunderstorm,331
2012-10-26,38,36,34,30,26,23,82,67,57,30.46,30.40,30.30,10,10,10,14,8,21,0.00,8,,309
2012-10-27,42,32,21,28,24,20,99,69,46,30.40,30.33,30.26,10,10,7,8,3,,0.00,3,,164
2012-10-28,50,40,30,31,29,27,87,67,45,30.31,30.26,30.20,10,10,10,14,6,20,0.00,4,,162
2012-10-29,55,46,36,31,28,26,76,53,35,30.24,30.19,30.13,10,10,10,20,10,26,0.00,3,,158
2012-10-30,49,40,31,32,28,19,88,65,32,30.15,30.10,30.06,10,10,10,7,1,,0.00,5,Rain,76
2012-10-31,57,42,26,34,30,26,99,73,35,30.07,30.02,29.96,10,9,5,6,1,,0.00,0,,244